Flight Track Log - Related Links

Times and Time Zones

All times are in EDT time to prevent confusion due to time zone crossing. See the EJA922 flight status page for this flight to view local times or setup timezone preferences in your user account.

Time Position Orientation Groundspeed Altitude Reporting Facility
EDT Latitude Longitude Course Direction KTS MPH feet Rate Location/Type
06:39PM 40.7667 -74.4333 157° South 206 237 1,800  Level New York TRACON
06:40PM 40.6689 -74.3797 157° South 253 291 5,600 1,651 Climbing New York Center
06:41PM 40.6119 -74.3331 148° Southeast 267 307 5,900 153 Climbing New York Center
06:42PM 40.5431 -74.2722 146° Southeast 272 313 5,900  Level New York Center
06:44PM 40.3992 -74.2050 160° South 272 313 5,900 822 Level New York Center
06:46PM 40.2608 -74.1625 167° South 266 306 9,200 1,933 Climbing New York Center
06:47PM 40.1669 -74.1661 182° South 287 330 11,700 2,182 Climbing New York Center
06:48PM 40.0831 -74.1133 154° Southeast 335 386 13,600 1,813 Climbing New York Center
06:50PM 40.0233 -73.8500 123° Southeast 380 437 17,200 1,633 Climbing New York Center
06:51PM 39.9881 -73.6833 105° East 420 483 18,500 1,424 Climbing New York Center
06:52PM 39.9606 -73.5278 103° East 427 491 20,000 1,261 Climbing New York Center
06:53PM 39.9325 -73.3886 105° East 434 499 21,000 1,033 Climbing New York Center
06:54PM 39.9025 -73.2333 104° East 439 505 22,100 984 Climbing New York Center
06:55PM 39.8703 -73.0753 105° East 439 505 23,000 908 Climbing New York Center
06:56PM 39.8400 -72.9228 104° East 439 505 23,900 1,017 Climbing New York Center
06:57PM 39.7839 -72.7914 119° Southeast 433 498 25,000 1,022 Climbing New York Center
06:59PM 39.6356 -72.5608 130° Southeast 414 476 27,000 1,006 Climbing New York Center
07:00PM 39.5622 -72.4431 129° Southeast 419 482 28,000 974 Climbing New York Center
07:01PM 39.4867 -72.3283 130° Southeast 419 482 28,900 984 Climbing New York Center
07:02PM 39.4133 -72.2083 128° Southeast 419 482 30,000 1,050 Climbing New York Center
07:03PM 39.3375 -72.0914 130° Southeast 419 482 31,000 966 Climbing New York Center
07:04PM 39.2639 -71.9692 128° Southeast 424 488 31,900 885 Climbing New York Center
07:05PM 39.1686 -71.8953 149° Southeast 412 474 32,800 934 Climbing New York Center
07:06PM 39.0622 -71.9042 184° South 367 422 33,800 1,008 Climbing New York Center
07:07PM 38.9558 -71.9292 190° South 373 429 34,800 742 Climbing New York Center
07:09PM 38.7383 -71.9789 190° South 391 450 36,000 398 Climbing New York Center
07:10PM 38.6233 -71.9981 187° South 406 467 36,000  Level New York Center
07:11PM 38.5000 -72.0278 191° South 437 503 36,000  Level New York Center
07:12PM 38.3661 -72.0653 192° South 465 535 36,000  Level New York Center
07:13PM 38.2344 -72.0867 187° South 484 557 36,000  Level New York Center
07:14PM 38.1008 -72.1158 190° South 489 563 36,000 151 Level New York Center
07:15PM 37.9711 -72.1422 189° South 484 557 36,300 843 Climbing New York Center
07:16PM 37.8414 -72.1689 189° South 484 557 37,700 1,300 Climbing New York Center
07:17PM 37.7161 -72.1900 188° South 479 551 38,900 1,109 Climbing New York Center
07:18PM 37.5883 -72.2319 195° South 469 540 39,900 885 Climbing New York Center
07:19PM 37.4544 -72.2556 188° South 460 529 40,700 504 Climbing New York Center
07:20PM 37.3269 -72.2842 190° South 468 539 40,900 151 Climbing New York Center
07:21PM 37.1972 -72.3103 189° South 473 544 41,000 50 Climbing New York Center
07:22PM 37.0528 -72.3358 188° South 489 563 41,000  Level New York Center
07:23PM 36.9314 -72.3775 195° South 484 557 41,000  Level New York Center
07:24PM 36.8233 -72.4764 216° Southwest 459 528 41,000  Level New York Center
07:25PM 36.7239 -72.5750 218° Southwest 474 545 41,000  Level New York Center
07:27PM 36.5119 -72.7792 202° Southwest 485 558 41,000  Level New York Center
07:28PM 36.3994 -72.8819 216° Southwest 493 567 41,000  Level New York Center
07:29PM 36.2911 -72.9822 217° Southwest 494 568 41,000  Level New York Center
07:30PM 36.1911 -73.0822 219° Southwest 494 568 41,000  Level New York Center
07:31PM 36.0806 -73.1842 217° Southwest 494 568 41,000 50 Level New York Center
07:32PM 35.9742 -73.2858 218° Southwest 494 568 41,100 550 Climbing New York Center
07:33PM 35.8797 -73.3956 223° Southwest 489 563 42,100 1,109 Climbing New York Center
07:34PM 35.7956 -73.5156 229° Southwest 470 541 43,300 1,210 Climbing New York Center
07:35PM 35.7136 -73.6306 229° Southwest 460 529 44,500 787 Climbing New York Center
07:36PM 35.6197 -73.7189 217° Southwest 441 507 44,900 250 Climbing New York Center
07:37PM 35.5150 -73.8119 216° Southwest 447 514 45,000 50 Climbing New York Center
07:38PM 35.4167 -73.8997 216° Southwest 453 521 45,000 -50 Level New York Center
07:39PM 35.3119 -73.9947 217° Southwest 466 536 44,900  Descending New York Center
07:41PM 35.1022 -74.1767 219° Southwest 466 536 45,000 33 Climbing New York Center
07:42PM 35.0164 -74.2539 216° Southwest 471 542 45,000  Level New York Center
07:43PM 34.8922 -74.3625 216° Southwest 463 533 45,000  Level New York Center
07:44PM 34.7869 -74.4561 216° Southwest 469 540 45,000  Level New York Center
07:45PM 34.6819 -74.5472 216° Southwest 469 540 45,000  Level New York Center
07:46PM 34.5789 -74.6381 216° Southwest 464 534 45,000  Level New York Center
07:47PM 34.4714 -74.7311 216° Southwest 472 543 45,000  Level New York Center
07:49PM 34.2647 -74.9144 216° Southwest 496 571 45,000  Level New York Center
07:50PM 34.1572 -75.0067 215° Southwest 486 559 45,000  Level New York Center
07:51PM 34.0475 -75.0961 214° Southwest 486 559 45,000  Level New York Center
07:52PM 33.9378 -75.1878 215° Southwest 481 554 45,000  Level New York Center
07:53PM 33.8319 -75.2794 216° Southwest 481 554 45,000  Level New York Center
07:55PM 33.6161 -75.4644 228° Southwest 481 554 45,000  Level New York Center
07:56PM 33.5144 -75.5531 216° Southwest 481 554 45,000  Level New York Center
07:57PM 33.4108 -75.6417 216° Southwest 476 548 45,000  Level New York Center
07:58PM 33.2964 -75.7342 214° Southwest 486 559 45,000  Level New York Center
07:59PM 33.1947 -75.8222 216° Southwest 481 554 45,000  Level New York Center
08:00PM 33.0844 -75.9144 215° Southwest 476 548 45,000  Level New York Center
08:02PM 32.8700 -76.0914 221° Southwest 481 554 45,000  Level New York Center
08:03PM 32.7594 -76.1831 215° Southwest 481 554 45,000  Level New York Center
08:06PM 32.3683 -76.5033 215° Southwest 478 550 45,000  Level Jacksonville Center
08:07PM 32.2761 -76.5786 215° Southwest 483 556 45,000  Level Jacksonville Center
08:08PM 32.1678 -76.6669 215° Southwest 483 556 45,000  Level Jacksonville Center
08:09PM 32.0517 -76.7656 216° Southwest 483 556 45,000  Level Jacksonville Center
08:10PM 31.9411 -76.8536 214° Southwest 483 556 45,000  Level Jacksonville Center
08:11PM 31.8325 -76.9414 214° Southwest 478 550 45,000  Level Jacksonville Center
08:12PM 31.7286 -77.0408 219° Southwest 483 556 45,000  Level Jacksonville Center
08:13PM 31.6425 -77.1611 230° Southwest 478 550 45,000  Level Jacksonville Center
08:14PM 31.5431 -77.2719 224° Southwest 486 559 45,000  Level Jacksonville Center
08:15PM 31.4414 -77.3803 222° Southwest 497 572 45,000  Level Jacksonville Center
08:16PM 31.3186 -77.4408 203° Southwest 481 554 45,000  Level Jacksonville Center
08:17PM 31.1811 -77.4442 181° South 478 550 45,000  Level Jacksonville Center
08:18PM 31.0478 -77.4519 183° South 486 559 45,000  Level Jacksonville Center
08:19PM 30.9125 -77.4572 182° South 486 559 45,000  Level Jacksonville Center
08:20PM 30.7708 -77.4678 184° South 491 565 45,000  Level Jacksonville Center
08:21PM 30.6356 -77.4778 184° South 497 572 45,000  Level Jacksonville Center
08:23PM 30.3950 -77.4975 184° South 492 566 45,000  Level Miami Center
08:24PM 30.2375 -77.5075 183° South 492 566 45,000  Level Miami Center
08:25PM 30.0994 -77.4942 175° South 495 570 45,000  Level Miami Center
08:26PM 29.9597 -77.4778 174° South 496 571 45,000  Level Miami Center
08:27PM 29.8222 -77.4608 174° South 496 571 45,000  Level Miami Center
08:28PM 29.6822 -77.4447 174° South 499 574 45,000 -49 Level Miami Center
08:29PM 29.5439 -77.4275 174° South 501 577 44,900 -49 Descending Miami Center
08:30PM 29.4042 -77.4128 175° South 501 577 44,900 49 Level Miami Center
08:31PM 29.2656 -77.3961 174° South 502 578 45,000 49 Climbing Miami Center
08:32PM 29.0981 -77.3769 174° South 502 578 45,000 -146 Level Miami Center
08:34PM 28.9564 -77.3594 174° South 503 579 44,700 -1,426 Descending Miami Center
08:35PM 28.8172 -77.3439 174° South 503 579 42,100 -2,537 Descending Miami Center
08:36PM 28.6817 -77.3286 174° South 502 578 39,500 -2,585 Descending Miami Center
08:37PM 28.5425 -77.3131 174° South 501 577 36,800 -2,705 Descending Miami Center
08:38PM 28.4003 -77.2972 174° South 506 582 34,000 -2,754 Descending Miami Center
08:39PM 28.2556 -77.2797 174° South 516 594 31,200 -2,878 Descending Miami Center
08:40PM 28.0892 -77.2617 175° South 521 600 28,100 -2,780 Descending Miami Center
08:41PM 27.9506 -77.2442 174° South 504 580 25,500 -2,557 Descending Miami Center
08:42PM 27.8181 -77.2292 174° South 482 555 22,900 -2,459 Descending Miami Center
08:43PM 27.6919 -77.2178 175° South 459 528 20,500 -1,426 Descending Miami Center
08:44PM 27.5700 -77.2025 174° South 444 511 20,000 -489 Descending Miami Center
08:46PM 27.3172 -77.1750 174° South 434 499 19,000 -1,076 Descending Miami Center
08:47PM 27.1981 -77.1633 175° South 432 497 16,700 -2,361 Descending Miami Center
08:48PM 27.0903 -77.1453 172° South 400 460 14,200 -2,146 Descending Miami Center
08:49PM 26.9944 -77.1389 177° South 359 413 12,300 -1,610 Descending Miami Center
08:50PM 26.9150 -77.1392 180° South 300 345 10,900 -1,672 Descending Miami Center
08:51PM 26.8286 -77.1169 167° South 291 335 8,900 -1,967 Descending Miami Center
08:52PM 26.7544 -77.1156 179° South 274 315 6,900 -1,721 Descending Miami Center
08:53PM 26.6808 -77.1006 170° South 272 313 5,400 -1,475 Descending Miami Center

Login

Don't have an account? Register now (free) for customized features, flight alerts, and more!